User: anonymous   Login
Location: Unspecified
(0.0000°N, 0.0000°E)
Time: 03:58:49
(UTC+00:00)
Language:

DOVE 4 - Orbit

View from above orbital plane
View from above orbital plane
View from above satellite
View from above satellite

Ground track
Ground track

The orbit data is extracted from the following two-line orbital elements,

1 39430U 13066Q   17327.90687120  .00000274  00000-0  59294-4 0  9994
2 39430  97.6766 314.8627 0150353 258.5965  99.8315 14.58977971213212
Epoch (UTC): 23 November 2017 21:45:53
Eccentricity: 0.0150353
inclination: 97.6766°
perigee height: 590 km
apogee height: 803 km
right ascension of ascending node: 314.8627°
argument of perigee: 258.5965°
revolutions per day: 14.58977971
mean anomaly at epoch: 99.8315°
orbit number at epoch: 21321

The dashed part of the orbit path shows where the satellite is in the earth's shadow,  

DLR